This demonstration page uses our WeatherBlox Daily Observations layout. Learn more.

Left ArrowRight Arrow

41.86663, -103.66717

Hourly Observations for February 22, 2019

Temp ( °F °C ) Dew Point ( °F °C ) Humidity (%) Winds ( mph kmh ) Pressure ( in mb ) Visibility ( mi km ) Precip ( " mm )
12:28 am 00:28 Cloudy 19 -7 18 -8 93 93 E 12 19 30.23 1024 10 16 N/A
12:53 am 00:53 Cloudy 19 -7.2 17 -8.3 92 92 E 8 13 30.12 1020 10 16 N/A
1:53 am 01:53 Cloudy 18 -7.8 17 -8.3 96 96 E 8 13 30.13 1020 9 14 N/A
2:53 am 02:53 Cloudy 18 -7.8 17 -8.3 96 96 E 9 15 30.10 1019 7 11 N/A
3:53 am 03:53 Cloudy with Mist and Fog 18 -7.8 17 -8.3 96 96 E 10 17 30.09 1019 6 10 N/A
4:53 am 04:53 Cloudy with Mist and Fog 18 -7.8 17 -8.3 96 96 E 10 17 30.11 1020 4 6 N/A
5:53 am 05:53 Cloudy with Mist and Fog 18 -7.8 17 -8.3 96 96 E 10 17 30.10 1019 4 6 N/A
6:50 am 06:50 Cloudy with Mist and Fog 18 -8 18 -8 100 100 E 9 15 30.19 1022 4 6 N/A
6:53 am 06:53 Cloudy with Mist and Fog 18 -7.8 17 -8.3 96 96 ESE 9 15 30.09 1019 3 5 N/A
7:00 am 07:00 Cloudy with Mist and Fog 18 -7.8 18 -7.8 100 100 E 7 11 30.20 1023 2 3 N/A
7:15 am 07:15 Cloudy with Mist and Fog 18 -7.8 18 -7.8 100 100 E 9 15 30.20 1023 1 2 N/A
7:53 am 07:53 Cloudy with Mist and Fog 18 -7.8 18 -7.8 100 100 ESE 7 11 30.10 1019 1 2 N/A
8:32 am 08:32 Cloudy with Mist and Fog 19 -7.2 19 -7.2 100 100 ESE 10 17 30.17 1022 2 3 N/A
8:46 am 08:46 Cloudy with Mist and Fog 19 -7.2 19 -7.2 100 100 ESE 10 17 30.18 1022 3 5 N/A
8:53 am 08:53 Cloudy with Mist and Fog 19 -7.2 19 -7.2 100 100 ESE 12 19 30.08 1019 3 5 N/A
9:27 am 09:27 Cloudy with Mist and Fog 19 -7 19 -7 100 100 ESE 9 15 30.17 1022 6 10 N/A
9:53 am 09:53 Cloudy 19 -7.2 19 -7.2 100 100 SE 8 13 30.07 1018 8 13 N/A
10:53 am 10:53 Cloudy 20 -6.7 19 -7.2 96 96 ESE 7 11 30.06 1018 8 13 N/A
11:53 am 11:53 Cloudy 21 -6.1 20 -6.7 96 96 E 7 11 30.03 1017 7 11 N/A
12:53 pm 12:53 Cloudy 23 -5 22 -5.6 96 96 SSE 8 13 30.00 1016 8 13 N/A
1:53 pm 13:53 Cloudy 23 -5 22 -5.6 96 96 SE 6 9 29.99 1016 7 11 N/A
2:35 pm 14:35 Cloudy with Mist and Fog 23 -5 21 -6 93 93 E 7 11 30.03 1017 5 8 N/A
2:53 pm 14:53 Cloudy with Mist and Fog 23 -5 23 -5 100 100 ESE 8 13 29.97 1015 5 8 N/A
3:53 pm 15:53 Cloudy with Mist and Fog 24 -4.4 23 -5 96 96 E 3 6 29.99 1016 6 10 N/A
4:53 pm 16:53 Cloudy with Mist and Fog 24 -4.4 22 -5.6 91 91 ENE 3 6 29.98 1015 6 10 N/A
5:41 pm 17:41 Cloudy with Mist and Fog 25 -4 23 -5 93 93 N N/A 30.04 1017 6 10 N/A
5:53 pm 17:53 Cloudy 24 -4.4 22 -5.6 91 91 NNW 3 6 29.99 1016 7 11 N/A
6:13 pm 18:13 Cloudy 24 -4.4 22 -5.6 91 91 N N/A 30.05 1018 7 11 N/A
6:53 pm 18:53 Cloudy 24 -4.4 22 -5.6 91 91 N N/A 30.00 1016 7 11 N/A
7:53 pm 19:53 Cloudy with Mist and Fog 23 -5 22 -5.6 96 96 N N/A 30.00 1016 6 10 N/A
8:53 pm 20:53 Cloudy with Mist and Fog 21 -6.1 20 -6.7 96 96 N N/A 30.01 1016 6 10 N/A
9:25 pm 21:25 Partly Cloudy with Mist and Fog 21 -6 21 -6 100 100 SSE 5 7 30.10 1019 4 6 N/A
9:34 pm 21:34 Partly Cloudy with Mist and Fog 21 -6.1 21 -6.1 100 100 ESE 3 6 30.09 1019 4 6 N/A
9:53 pm 21:53 Mostly Cloudy with Mist and Fog 21 -6.1 21 -6.1 100 100 ESE 5 7 30.00 1016 4 6 N/A
10:53 pm 22:53 Cloudy with Mist and Fog 21 -6.1 21 -6.1 100 100 N N/A 30.01 1016 4 6 N/A
11:28 pm 23:28 Cloudy with Mist and Fog 20 -6.7 19 -7.2 96 96 NNE 3 6 30.08 1019 4 6 N/A
11:53 pm 23:53 Cloudy with Mist and Fog 20 -6.7 20 -6.7 100 100 N N/A 30.00 1016 4 6 N/A

Powered by AerisWeather